Tracking 35048 objects as of 19-Aug-2026
HD Live streaming from Space Station
objects crossing your sky now

STARLINK-31440

Track STARLINK-31440 now!
10-day predictions
STARLINK-31440 is classified as:


NORAD ID: 58999
Int'l Code: 2024-036B
Launch date: February 23, 2024
Source: United States (US)
Launch site: AIR FORCE WESTERN TEST RANGE (AFWTR)
Your satellite tracking list
Your tracking list is empty




NASA's NSSDC Master Catalog

Two Line Element Set (TLE):
1 58999U 24036B   26231.25004630  .00028717  00000-0  85822-3 0  9992
2 58999  53.1612  42.4522 0000839  89.0805 155.6492 15.34384310  5817
Source of the keplerian elements: AFSPC